Other Public Products
Issued by NWS Charleston, SC

Current Version | Previous Version | Text Only | Print | Product List | Glossary Off
Versions: 1 2 3 4 5 6 7 8 9 10 11 12 13 14 15 16 17 18 19 20 21 22 23 24 25 26 27 28 29 30 31 32 33 34 35 36 37 38 39 40 41 42 43 44 45 46 47 48 49 50

000
FPUS82 KCHS 241927
OPUCHS

TEST...KCHS/KSAV Gateway Observations...TEST
National Weather Service Charleston SC
200 PM EST SAT FEB 24 2018

NOTE: "fair" indicates few or no clouds below 12,000 feet with no
significant weather and/or obstructions to visibility.

SCZ050-WAZ558-NCZ071-TXZ119-213-PAZ071-DCZ001-FLZ074-172-MI076-
NYZ176-178-MAZ016-IL014-TNZ027-NJZ106-GAZ044-MD014-242000-

...Gateway Observations for Charleston International...

CITY           SKY/WX    TMP DP  RH WIND       PRES   REMARKS
Chas Airport   FAIR      80  61  52 SW16      30.17F
Seattle        CLOUDY    41  32  70 N9        30.08R
Charlotte      PTSUNNY   76  61  59 SW13G21   30.12F
Dallas DFW     PTSUNNY   56  50  80 W13       29.86S
Dallas Love    PTSUNNY   53  49  86 NW12      29.87F
Philladelphia  LGT RAIN  48  47  96 E6        30.15F FOG
Wash National  LGT RAIN  53  51  93 N8        30.13F
Baltimore      CLOUDY    50  47  89 NE8       30.14S
Miami          PTSUNNY   80  67  64 E16G23    30.16F
Detroit        CLOUDY    39  31  72 E9        30.15F WCI  33
Newark         CLOUDY    54  39  57 NW9       30.15R
Laguardia      CLOUDY    53  38  56 NW8       30.13F
J F K          LGT RAIN  53  40  61 NW10      30.14F
Boston Logan   CLOUDY    53  35  50 W8        30.10R
Ft. Lauderdale FAIR      80  70  71 E20       30.15F
Chicago O`Hare CLOUDY    38  31  76 E10       30.01F WCI  31
Chicago Midway CLOUDY    39  33  79 NE9       30.01F WCI  33
Houston Bush   PTSUNNY   80  66  62 S20G28    29.91F
Houston Hobby  PTSUNNY   80  68  66 S22G28    29.91F
Nashville      CLOUDY    76  61  59 S14       29.95F
Atlanta        PTSUNNY   78  59  51 S13G29    30.11F

$$

GAZ044-118-TXZ119-213-NCZ071-DCZ001-MDZ014-506-PAZ021-071-NJZ106-
NYZ176-178-MAZ106-OHZ011-021-055-MIZ076-KYZ091-ILZ014-INZ047-
MNZ060-ONZ431-242000-

...Gateway Observations for Savannah International...

CITY           SKY/WX    TMP DP  RH WIND       PRES   REMARKS
Savannah Arpt  FAIR      81  59  47 S9        30.17F
Atlanta        PTSUNNY   78  59  51 S13G29    30.11F
Charlotte      PTSUNNY   76  61  59 SW13G21   30.12F
Dallas DFW     PTSUNNY   56  50  80 W13       29.86S
Houston Bush   PTSUNNY   80  66  62 S20G28    29.91F
Wash National  LGT RAIN  53  51  93 N8        30.13F
Wash Dulles    LGT RAIN  51  50  96 NE8       30.13F FOG
Baltimore      CLOUDY    50  47  89 NE8       30.14S
Philadelphia   LGT RAIN  48  47  96 E6        30.15F FOG
Newark         CLOUDY    54  39  57 NW9       30.15R
Laguardia      CLOUDY    53  38  56 NW8       30.13F
J F K          LGT RAIN  53  40  61 NW10      30.14F
Boston         CLOUDY    53  35  50 W8        30.10R
Pittsburg      DRIZZLE   47  45  93 NE9       30.11F
Akron          LGT RAIN  43  40  89 E10       30.08F
Cleveland      CLOUDY    39  36  89 N15       30.15F WCI  31
Cincinnati     CLOUDY    53  51  93 E9        29.98F
Columbus       CLOUDY    49  49  99 E12       30.01F
Detroit        CLOUDY    39  31  72 E9        30.15F WCI  33
Chicago O`Hare CLOUDY    38  31  76 E10       30.01F WCI  31
Minneapolis    CLOUDY    26  21  81 E14       29.90F HAZE    WCI  14
Indianapolis   LGT RAIN  48  47  96 E15       29.95F
Toronto Canada PTSUNNY   37  25  60 NE6       30.20F WCI  33

$$




USA.gov is the U.S. government's official web portal to all federal, state and local government web resources and services.